Greenville, AL

10:15 PM CDT on September 26, 2016 (GMT -0500)
Greenville Municipal

Weather History for KPRN - February, 2014

Change the Weather History Date:

Saturday, February 8, 2014

  Actual Average Record
Temperature  
Mean Temperature 51 °F -  
Max Temperature 63 °F 59 °F 83 °F (1957)
Min Temperature 39 °F 33 °F 19 °F (1967)
Degree Days  
Heating Degree Days 14    
Growing Degree Days 1 (Base 50)    
Moisture  
Dew Point 35 °F    
Average Humidity 60    
Maximum Humidity 86    
Minimum Humidity 38    
Precipitation  
Precipitation 0.00 in - - ()
Sea Level Pressure  
Sea Level Pressure 30.17 in    
Wind  
Wind Speed 4 mph (North)    
Max Wind Speed 8 mph    
Max Gust Speed -    
Visibility 10 miles    
Events Rain    
Averages and records for this station are not official NWS values.
T = Trace of Precipitation, MM = Missing Value Source: NWS Daily Summary

Daily Weather History Graph

Daily Weather History Graph

Search for Another Location

Airport or City:

Trip Planner

Search our weather history database for the weather conditions in past years. The results will help you decide how hot, cold, wet, or windy it might be!

Date:

Astronomy

Feb. 08, 2014 Rise Set
Actual Time 6:34 AM CST 5:27 PM CST
Civil Twilight 6:09 AM CST 5:52 PM CST
Nautical Twilight 5:40 AM CST 6:21 PM CST
Astronomical Twilight 5:11 AM CST 6:49 PM CST
Moon 12:26 PM CST (2/8) 1:41 AM CST (2/8)
Length of Visible Light 11h 42m
Length of Day
10h 52m
Waxing Gibbous, 69% of the Moon is Illuminated
Feb 8
Waxing Gibbous
Feb 14
Full
Feb 22
Last Quarter
Mar 1
New
Mar 8
First Quarter

Hourly Weather History & Observations

Time (CST) Temp. Windchill Dew Point Humidity Pressure Visibility Wind Dir Wind Speed Gust Speed Precip Events Conditions
12:56 AM 43.0 °F 41.3 °F 30.0 °F 60% 30.22 in 10.0 mi North 3.5 mph - N/A   Mostly Cloudy
1:56 AM 42.1 °F 39.2 °F 32.0 °F 67% 30.19 in 10.0 mi North 4.6 mph - N/A   Mostly Cloudy
2:56 AM 42.1 °F 40.2 °F 32.0 °F 67% 30.19 in 10.0 mi West 3.5 mph - N/A   Scattered Clouds
3:56 AM 43.0 °F 41.3 °F 32.0 °F 65% 30.17 in 10.0 mi NNE 3.5 mph - N/A Rain Light Rain
4:56 AM 42.1 °F 39.2 °F 32.0 °F 67% 30.23 in 10.0 mi NW 4.6 mph - N/A   Overcast
5:56 AM 41.0 °F 38.0 °F 30.9 °F 67% 30.24 in 10.0 mi North 4.6 mph - N/A   Overcast
6:56 AM 39.9 °F - 32.0 °F 73% 30.19 in 10.0 mi Calm Calm - N/A   Partly Cloudy
7:56 AM 43.0 °F 40.3 °F 33.1 °F 68% 30.22 in 10.0 mi NE 4.6 mph - N/A   Clear
8:56 AM 50.0 °F - 34.0 °F 54% 30.23 in 10.0 mi Calm Calm - N/A   Clear
9:56 AM 54.0 °F - 36.0 °F 51% 30.22 in 10.0 mi Calm Calm - N/A   Clear
10:56 AM 57.9 °F - 37.0 °F 46% 30.21 in 10.0 mi NW 5.8 mph - N/A   Clear
11:56 AM 61.0 °F - 37.9 °F 42% 30.16 in 10.0 mi Calm Calm - N/A   Clear
12:56 PM 63.0 °F - 37.9 °F 40% 30.15 in 10.0 mi Variable 5.8 mph - N/A   Scattered Clouds
1:56 PM 63.0 °F - 37.0 °F 38% 30.12 in 10.0 mi North 6.9 mph - N/A   Clear
2:56 PM 63.0 °F - 37.0 °F 38% 30.11 in 10.0 mi NE 3.5 mph - N/A   Mostly Cloudy
3:56 PM 63.0 °F - 37.9 °F 40% 30.11 in 10.0 mi NW 3.5 mph - N/A   Clear
4:56 PM 61.0 °F - 37.9 °F 42% 30.12 in 10.0 mi NNW 5.8 mph - N/A   Clear
5:56 PM 55.9 °F - 39.0 °F 53% 30.13 in 10.0 mi North 8.1 mph - N/A   Clear
6:56 PM 52.0 °F - 37.9 °F 59% 30.13 in 10.0 mi North 5.8 mph - N/A   Clear
7:56 PM 48.0 °F - 37.9 °F 68% 30.15 in 10.0 mi NNW 4.6 mph - N/A   Clear
8:56 PM 45.0 °F 42.6 °F 37.9 °F 76% 30.15 in 10.0 mi North 4.6 mph - N/A   Clear
9:56 PM 43.0 °F 41.3 °F 37.0 °F 80% 30.16 in 10.0 mi North 3.5 mph - N/A   Clear
10:56 PM 39.9 °F 36.7 °F 35.1 °F 83% 30.14 in 10.0 mi North 4.6 mph - N/A   Clear
11:56 PM 39.9 °F 37.8 °F 36.0 °F 86% 30.14 in 10.0 mi NNE 3.5 mph - N/A   Scattered Clouds